This is the latest recevied weather packets stored in our database for station/object K8FJG-13. If no packets are shown the sender has not sent any weather packets the latest 10 day(s).
| Time | Temp. | Humidity | Pressure | Rain* | Wind** | Luminosity | Snow |
|---|---|---|---|---|---|---|---|
| 1777753026 | 6.11° C | 60% | 971.6 hPa | - | - | - | - |
| 1777752423 | 6.67° C | 57% | 971.5 hPa | - | - | - | - |
| 1777751819 | 6.67° C | 58% | 971.7 hPa | - | - | - | - |
| 1777751216 | 6.67° C | 54% | 971.7 hPa | - | - | - | - |
| 1777750613 | 7.22° C | 55% | 971.7 hPa | - | - | - | - |
| 1777750010 | 7.22° C | 53% | 971.7 hPa | - | - | - | - |
| 1777749407 | 7.78° C | 53% | 971.8 hPa | - | - | - | - |
| 1777748803 | 7.78° C | 51% | 971.8 hPa | - | - | - | - |
| 1777748200 | 7.78° C | 54% | 971.8 hPa | - | - | - | - |
| 1777747597 | 6.67° C | 53% | 971.9 hPa | - | - | - | - |
| 1777746994 | 6.11° C | 55% | 972 hPa | - | - | - | - |
| 1777746391 | 6.11° C | 56% | 972 hPa | - | - | - | - |
| 1777745788 | 6.11° C | 57% | 972.2 hPa | - | - | - | - |
| 1777745185 | 6.67° C | 59% | 972.2 hPa | - | - | - | - |
| 1777744582 | 6.67° C | 59% | 972.2 hPa | - | - | - | - |
| 1777743978 | 6.11° C | 59% | 972.3 hPa | - | - | - | - |
| 1777743375 | 6.11° C | 61% | 972.3 hPa | - | - | - | - |
| 1777742772 | 5.56° C | 63% | 972.3 hPa | - | - | - | - |
| 1777742169 | 5.56° C | 63% | 972.5 hPa | - | - | - | - |
| 1777741566 | 5.56° C | 64% | 972.5 hPa | - | - | - | - |
| 1777740963 | 5° C | 66% | 972.6 hPa | - | - | - | - |
| 1777740360 | 5° C | 67% | 972.6 hPa | - | - | - | - |
| 1777739756 | 4.44° C | 68% | 972.5 hPa | - | - | - | - |
| 1777739153 | 4.44° C | 68% | 972.5 hPa | - | - | - | - |
| 1777738550 | 3.89° C | 72% | 972.5 hPa | - | - | - | - |
* Rain since midnight (hover to see other rain measurements)
** Current wind speed in m/s (hover to see current wind gust speed)